• In Netherlands
  • List of Countries
  • For 7 days
  • Water Temperature
  • Satellite Maps
  • Weather Map
  • Weather Widgets
  • user-avatar
    Login

    Hourly Weather Pinsk

    Today, 28 March, Tuesday

    Time Temperature Precipitation Wind Pressure Humidity
    00:00 +6°C° 0 mm 4 mps 748 mmHg 93%
    01:00 +6°C° 0 mm 4 mps 748 mmHg 94%
    02:00 +6°C° 0 mm 4 mps 748 mmHg 96%
    03:00 +6°C° 0 mm 4 mps 748 mmHg 93%
    04:00 +6°C° 0 mm 4 mps 748 mmHg 91%
    05:00 +5°C° 0 mm 4 mps 748 mmHg 89%
    06:00 +5°C° 0 mm 4 mps 748 mmHg 87%
    07:00 +6°C° 0 mm 4 mps 748 mmHg 86%
    08:00 +6°C° 0 mm 4 mps 749 mmHg 85%
    09:00 +6°C° 0 mm 5 mps 749 mmHg 81%
    10:00 +6°C° 0 mm 5 mps 749 mmHg 77%
    11:00 +7°C° 0 mm 5 mps 750 mmHg 73%
    12:00 +8°C° 0 mm 5 mps 750 mmHg 66%
    13:00 +8°C° 0 mm 5 mps 750 mmHg 60%
    14:00 +9°C° 0 mm 5 mps 750 mmHg 54%
    15:00 +9°C° 0 mm 5 mps 751 mmHg 55%
    16:00 +10°C° 0 mm 4 mps 751 mmHg 55%
    17:00 +8°C° 0 mm 4 mps 751 mmHg 56%
    18:00 +8°C° 0 mm 3 mps 751 mmHg 63%
    19:00 +6°C° 0 mm 2 mps 752 mmHg 70%
    20:00 +5°C° 0 mm 2 mps 752 mmHg 77%
    21:00 +5°C° 0 mm 1 mps 752 mmHg 80%
    22:00 +4°C° 0 mm 1 mps 753 mmHg 82%
    23:00 +4°C° 0 mm 1 mps 753 mmHg 85%

    Tomorrow, 29 March, Wednesday

    Time Temperature Precipitation Wind Pressure Humidity
    00:00 +3°C° 0 mm 1 mps 753 mmHg 87%
    01:00 +3°C° 0 mm 1 mps 753 mmHg 90%
    02:00 +1°C° 0 mm 0 mps 753 mmHg 92%
    03:00 +1°C° 0 mm 0 mps 753 mmHg 93%
    04:00 +1°C° 0 mm 0 mps 753 mmHg 93%
    05:00 +1°C° 0 mm 1 mps 753 mmHg 93%
    06:00 +3°C° 0 mm 1 mps 753 mmHg 88%
    07:00 +4°C° 0 mm 1 mps 752 mmHg 83%
    08:00 +5°C° 0 mm 1 mps 752 mmHg 78%
    09:00 +6°C° 0 mm 2 mps 752 mmHg 75%
    10:00 +7°C° 0 mm 2 mps 751 mmHg 72%
    11:00 +9°C° 0 mm 2 mps 751 mmHg 68%
    12:00 +11°C° 0 mm 3 mps 750 mmHg 67%
    13:00 +12°C° 0 mm 3 mps 749 mmHg 65%
    14:00 +13°C° 0 mm 4 mps 748 mmHg 63%
    15:00 +13°C° 0.2 mm 4 mps 748 mmHg 65%
    16:00 +13°C° 0.2 mm 4 mps 747 mmHg 68%
    17:00 +13°C° 0.2 mm 4 mps 746 mmHg 70%
    18:00 +12°C° 0.7 mm 3 mps 746 mmHg 78%
    19:00 +10°C° 0.7 mm 3 mps 746 mmHg 85%
    20:00 +9°C° 0.7 mm 3 mps 746 mmHg 93%
    21:00 +8°C° 1.3 mm 4 mps 746 mmHg 92%
    22:00 +8°C° 1.3 mm 4 mps 746 mmHg 92%
    23:00 +8°C° 1.3 mm 5 mps 746 mmHg 92%

    Day after tomorrow, 30 March, Thursday

    Time Temperature Precipitation Wind Pressure Humidity
    00:00 +7°C° 0.1 mm 5 mps 747 mmHg 91%
    01:00 +7°C° 0.1 mm 4 mps 747 mmHg 90%
    02:00 +6°C° 0.1 mm 4 mps 748 mmHg 89%
    03:00 +6°C° 0 mm 4 mps 748 mmHg 90%
    04:00 +7°C° 0 mm 3 mps 749 mmHg 91%
    05:00 +5°C° 0 mm 3 mps 749 mmHg 91%
    06:00 +5°C° 0 mm 3 mps 750 mmHg 90%
    07:00 +5°C° 0 mm 4 mps 751 mmHg 88%
    08:00 +5°C° 0 mm 4 mps 751 mmHg 86%
    09:00 +5°C° 0.1 mm 4 mps 752 mmHg 83%
    10:00 +4°C° 0.1 mm 4 mps 753 mmHg 80%
    11:00 +4°C° 0.1 mm 4 mps 754 mmHg 77%
    12:00 +4°C° 0 mm 4 mps 754 mmHg 74%
    13:00 +4°C° 0 mm 4 mps 755 mmHg 71%
    14:00 +4°C° 0 mm 4 mps 755 mmHg 68%
    15:00 +4°C° 0 mm 3 mps 756 mmHg 66%
    16:00 +4°C° 0 mm 3 mps 756 mmHg 65%
    17:00 +4°C° 0 mm 3 mps 757 mmHg 63%
    18:00 +4°C° 0 mm 2 mps 757 mmHg 65%
    19:00 +4°C° 0 mm 2 mps 758 mmHg 67%
    20:00 +4°C° 0 mm 1 mps 759 mmHg 69%
    21:00 +3°C° 0 mm 1 mps 759 mmHg 72%
    22:00 +2°C° 0 mm 1 mps 759 mmHg 74%
    23:00 +1°C° 0 mm 1 mps 759 mmHg 77%

    31 March, Friday

    Time Temperature Precipitation Wind Pressure Humidity
    00:00 +1°C° 0 mm 1 mps 759 mmHg 78%
    01:00 +1°C° 0 mm 1 mps 760 mmHg 79%
    02:00 -2°C° 0 mm 2 mps 760 mmHg 80%
    03:00 -2°C° 0 mm 2 mps 759 mmHg 80%
    04:00 -1°C° 0 mm 2 mps 759 mmHg 79%
    05:00 -1°C° 0 mm 2 mps 759 mmHg 78%
    06:00 -1°C° 0 mm 3 mps 758 mmHg 76%
    07:00 0°C° 0 mm 3 mps 758 mmHg 74%
    08:00 0°C° 0 mm 4 mps 758 mmHg 72%
    09:00 +1°C° 0 mm 4 mps 757 mmHg 72%
    10:00 +3°C° 0 mm 4 mps 757 mmHg 72%
    11:00 +5°C° 0 mm 4 mps 756 mmHg 72%
    12:00 +6°C° 0 mm 4 mps 755 mmHg 74%
    13:00 +7°C° 0 mm 4 mps 755 mmHg 76%
    14:00 +8°C° 0 mm 4 mps 754 mmHg 77%
    15:00 +10°C° 0 mm 4 mps 754 mmHg 78%
    16:00 +11°C° 0 mm 3 mps 753 mmHg 79%
    17:00 +12°C° 0 mm 3 mps 753 mmHg 80%
    18:00 +10°C° 0 mm 3 mps 753 mmHg 85%
    19:00 +9°C° 0 mm 3 mps 753 mmHg 91%
    20:00 +8°C° 0 mm 2 mps 753 mmHg 96%
    21:00 +8°C° 0 mm 2 mps 752 mmHg 96%
    22:00 +8°C° 0 mm 2 mps 752 mmHg 97%
    23:00 +8°C° 0 mm 2 mps 752 mmHg 97%

    1 April, Saturday

    Time Temperature Precipitation Wind Pressure Humidity
    00:00 +8°C° 0 mm 2 mps 752 mmHg 97%
    01:00 +8°C° 0 mm 2 mps 752 mmHg 97%
    02:00 +7°C° 0 mm 2 mps 752 mmHg 97%
    03:00 +7°C° 0 mm 2 mps 751 mmHg 97%
    04:00 +7°C° 0 mm 2 mps 751 mmHg 97%
    05:00 +7°C° 0 mm 3 mps 751 mmHg 97%
    06:00 +8°C° 0 mm 3 mps 751 mmHg 94%
    07:00 +9°C° 0 mm 3 mps 751 mmHg 90%
    08:00 +9°C° 0 mm 3 mps 751 mmHg 86%
    09:00 +11°C° 0 mm 3 mps 751 mmHg 80%
    10:00 +13°C° 0 mm 3 mps 751 mmHg 74%
    11:00 +16°C° 0 mm 3 mps 751 mmHg 68%
    12:00 +17°C° 0 mm 3 mps 751 mmHg 64%
    13:00 +18°C° 0 mm 3 mps 750 mmHg 61%
    14:00 +19°C° 0 mm 4 mps 750 mmHg 57%
    15:00 +19°C° 0 mm 3 mps 750 mmHg 60%
    16:00 +18°C° 0 mm 2 mps 750 mmHg 63%
    17:00 +19°C° 0 mm 1 mps 750 mmHg 67%
    18:00 +16°C° 0 mm 1 mps 750 mmHg 74%
    19:00 +14°C° 0 mm 1 mps 750 mmHg 81%
    20:00 +12°C° 0 mm 1 mps 751 mmHg 88%
    21:00 +12°C° 0 mm 1 mps 751 mmHg 90%
    22:00 +11°C° 0 mm 1 mps 751 mmHg 91%
    23:00 +11°C° 0 mm 1 mps 751 mmHg 93%

    2 April, Sunday

    Time Temperature Precipitation Wind Pressure Humidity
    00:00 +10°C° 0 mm 1 mps 752 mmHg 94%
    01:00 +10°C° 0 mm 1 mps 752 mmHg 94%
    02:00 +10°C° 0 mm 1 mps 752 mmHg 95%
    03:00 +9°C° 0 mm 1 mps 752 mmHg 95%
    04:00 +9°C° 0 mm 1 mps 752 mmHg 96%
    05:00 +9°C° 0 mm 1 mps 752 mmHg 96%
    06:00 +10°C° 0 mm 1 mps 753 mmHg 92%
    07:00 +11°C° 0 mm 1 mps 753 mmHg 89%
    08:00 +12°C° 0 mm 2 mps 753 mmHg 86%
    09:00 +14°C° 0 mm 2 mps 754 mmHg 80%
    10:00 +15°C° 0 mm 2 mps 754 mmHg 74%
    11:00 +17°C° 0 mm 2 mps 754 mmHg 68%
    12:00 +18°C° 0.1 mm 2 mps 754 mmHg 63%
    13:00 +19°C° 0.1 mm 2 mps 753 mmHg 59%
    14:00 +20°C° 0.1 mm 2 mps 753 mmHg 55%
    15:00 +19°C° 0.1 mm 2 mps 753 mmHg 57%
    16:00 +19°C° 0.1 mm 2 mps 753 mmHg 59%
    17:00 +20°C° 0.1 mm 1 mps 752 mmHg 62%
    18:00 +18°C° 0 mm 1 mps 752 mmHg 68%
    19:00 +15°C° 0 mm 2 mps 752 mmHg 74%
    20:00 +13°C° 0 mm 2 mps 752 mmHg 80%
    21:00 +13°C° 0 mm 2 mps 751 mmHg 81%
    22:00 +12°C° 0 mm 2 mps 751 mmHg 81%
    23:00 +12°C° 0 mm 2 mps 751 mmHg 82%
    Show more